FW7205 Weather Reports


Display with metric or nautical units.
time (UTC)temp
F
wind
direction
speed
MPH
gust
MPH
rain 1hr
in
rain 24hr
in
rain mn
in
humidity
%
barometer
mb
20260503060116 61 0 0.0 0.0 0.00 0.01 0.00 70 1020.4
20260503054603 61 0 0.0 0.0 0.00 0.01 0.00 69 1020.3
20260503053053 61 0 0.0 0.0 0.00 0.01 0.00 67 1020.3
20260503051552 62 0 0.0 0.0 0.00 0.01 0.00 70 1020.3
20260503050055 62 0 0.0 0.0 0.00 0.01 0.00 72 1020.2
20260503044553 63 0 0.0 0.0 0.00 0.01 0.01 72 1020.3
20260503043053 63 0 0.0 0.0 0.00 0.01 0.01 70 1020.3
20260503041552 63 0 0.0 0.0 0.00 0.01 0.01 70 1020.1
20260503040052 64 0 0.0 0.0 0.00 0.01 0.01 69 1020.0
20260503034550 64 0 0.0 0.0 0.00 0.01 0.01 68 1019.9
20260503033106 65 0 0.0 0.0 0.00 0.01 0.01 67 1020.0
20260503031554 65 0 0.0 0.0 0.00 0.01 0.01 66 1019.7
20260503030054 66 0 0.0 0.0 0.00 0.01 0.01 64 1019.6
20260503024555 66 0 0.0 0.0 0.00 0.01 0.01 63 1019.6
20260503023102 67 0 0.0 0.0 0.00 0.01 0.01 61 1019.3
20260503021553 67 0 0.0 0.0 0.00 0.01 0.01 60 1019.2
20260503020052 68 0 0.0 0.0 0.00 0.01 0.01 58 1018.8
20260503014559 69 0 0.0 0.0 0.00 0.01 0.01 58 1018.9
20260503013056 70 0 0.0 0.0 0.00 0.01 0.01 56 1018.6
20260503011551 71 0 0.0 0.0 0.00 0.01 0.01 55 1018.6
20260503010054 71 0 0.0 0.0 0.00 0.01 0.01 53 1018.3
20260503004553 72 0 0.0 0.0 0.00 0.01 0.01 51 1018.0
20260503003107 72 0 0.0 1.0 0.00 0.01 0.01 50 1018.1
20260503001554 73 0 0.0 3.0 0.00 0.01 0.01 49 1018.0
20260503000055 73 0 0.0 1.0 0.00 0.01 0.01 48 1017.8
20260502234559 73 0 0.0 1.0 0.00 0.04 0.01 48 1017.7
20260502233054 73 0 0.0 2.0 0.00 0.04 0.01 47 1017.7
20260502231609 73 0 0.0 2.0 0.00 0.04 0.01 47 1017.7
20260502230058 73 0 0.0 3.0 0.00 0.04 0.01 47 1017.8
20260502224559 73 69 0.0 4.0 0.00 0.09 0.01 46 1017.8
20260502223054 74 71 0.0 3.0 0.00 0.09 0.01 48 1017.9
20260502221552 74 63 1.0 3.0 0.00 0.09 0.01 46 1017.8
20260502220056 74 63 1.0 5.0 0.00 0.09 0.01 46 1018.1
20260502214554 74 0 0.0 2.0 0.00 0.18 0.01 48 1018.1
20260502213105 74 0 0.0 2.0 0.00 0.18 0.01 50 1018.4
20260502211556 74 0 1.0 5.0 0.00 0.18 0.01 49 1018.4
20260502210054 74 0 0.0 4.0 0.00 0.18 0.01 52 1018.7
20260502204602 73 347 0.0 2.0 0.00 0.32 0.01 52 1018.8
20260502203055 73 0 0.0 3.0 0.00 0.32 0.01 51 1018.7
20260502201555 73 65 1.0 4.0 0.00 0.32 0.01 52 1019.0
20260502200057 73 0 0.0 5.0 0.00 0.32 0.01 51 1019.1
20260502194555 73 57 0.0 3.0 0.00 0.42 0.01 54 1019.2
20260502193055 73 0 1.0 4.0 0.00 0.42 0.01 55 1019.4
20260502191554 72 0 0.0 4.0 0.00 0.42 0.01 56 1019.5
20260502190052 72 65 2.0 4.0 0.00 0.42 0.01 54 1019.8
20260502184558 72 46 0.0 3.0 0.00 0.42 0.01 58 1020.0
20260502183056 72 0 0.0 2.0 0.00 0.42 0.01 56 1020.1
20260502181554 71 355 0.0 4.0 0.00 0.42 0.01 59 1020.3
20260502180105 71 70 0.0 5.0 0.00 0.42 0.01 59 1020.6
20260502170108 69 0 0.0 4.0 0.01 0.47 0.01 60 1021.0
20260502163053 68 65 0.0 4.0 0.00 0.47 0.00 61 1021.0
20260502161557 66 22 0.0 4.0 0.00 0.47 0.00 65 1021.0
20260502151555 63 0 0.0 2.0 0.00 0.54 0.00 76 1020.9
20260502123056 50 0 0.0 0.0 0.00 0.80 0.00 92 1019.2
20260502121555 50 0 0.0 1.0 0.00 0.80 0.00 92 1018.7
20260502114559 50 0 0.0 0.0 0.00 0.99 0.00 92 1018.4
20260502113057 50 0 0.0 0.0 0.00 0.99 0.00 92 1018.1
20260502111608 51 0 0.0 0.0 0.00 0.99 0.00 92 1018.1
20260502110057 51 0 0.0 0.0 0.00 0.99 0.00 92 1017.8
20260502104554 51 0 0.0 1.0 0.00 1.09 0.00 92 1017.6
20260502103110 51 0 0.0 0.0 0.00 1.09 0.00 92 1017.4
20260502101609 51 0 0.0 1.0 0.00 1.09 0.00 92 1017.3
20260502100104 51 0 0.0 1.0 0.00 1.09 0.00 91 1017.2
20260502070057 52 0 0.0 1.0 0.00 1.41 0.00 91 1016.2
20260502064601 53 0 0.0 1.0 0.00 1.41 0.00 91 1016.3